Hourly Data Report for July 17, 2021

IQALUIT CLIMATE
NUNAVUT
Current Station Operator: ECCC - MSC

63°44'50.000" N
68°32'40.000" W
33.50 m
2402592
71321
XFB

Download Data

Hourly Data (July 2021)
Hourly Data Report for July 17, 2021
TIME
LST
Temp Definition
°C
Dew Point Definition
°C
Rel Hum Definition
%
Precip. Amount Definition
mm

Wind Dir Definition
10's deg

Wind Spd Definition
km/h
Visibility Definition
km
Stn Press Definition
kPa
Hmdx Definition


Wind Chill Definition


Weather Definition


00:00 12.8 8.6 75 0.0 33 13   100.83     LegendNANA
01:00 11.3 8.1 80 0.0 35 9   100.87     LegendNANA
02:00 10.7 7.0 78 0.0 35 4   100.87     LegendNANA
03:00 9.5 7.2 85 0.0 13 7   100.90     LegendNANA
04:00 8.6 6.5 87 0.0 13 5   100.92     LegendNANA
05:00 9.2 6.5 83 0.0 14 2   100.93     LegendNANA
06:00 9.1 6.5 84 0.0 15 8   100.93     LegendNANA
07:00 10.9 6.9 76 0.0 10 4   100.93     LegendNANA
08:00 12.3 7.5 73 0.0 12 5   100.90     LegendNANA
09:00 13.9 8.4 70 0.0 14 4   100.88     LegendNANA
10:00 12.3 7.7 74 0.0 14 6   100.84     LegendNANA
11:00 12.8 8.0 72 0.0 14 8   100.78     LegendNANA
12:00 14.3 9.1 71 0.0 13 7   100.71     LegendNANA
13:00 16.7 8.7 59 0.0 13 7   100.64     LegendNANA
14:00 16.0 9.0 63 0.0 13 8   100.59     LegendNANA
15:00 16.5 8.8 60 0.0 13 11   100.52     LegendNANA
16:00 17.0 9.6 62 0.0 15 10   100.45     LegendNANA
17:00 17.4 9.8 61 0.0 13 12   100.39     LegendNANA
18:00 14.9 7.6 62 0.0 14 31   100.36     LegendNANA
19:00 12.2 7.0 70 0.0 15 29   100.33     LegendNANA
20:00 10.0 5.9 76 0.0 16 19   100.32     LegendNANA
21:00 10.9 6.5 74 0.0 17 18   100.24     LegendNANA
22:00 10.9 6.5 74 0.0 18 19   100.21     LegendNANA
23:00 8.5 4.7 77 0.0 17 25   100.11     LegendNANA

Notes on Data Quality.

Legend

  • E = Estimated
  • M = Missing
  • NA = Not Available*
  • [empty] = Indicates an unobserved value
Date modified: